Location: Shepherdstown, WV
(39.4326°N, 77.8042°W)
Time: 22:47:44
(UTC-04:00)

Vanguard 1 - Pass Details

Date: 03 August 2021
Orbit: 652 x 3831 km, 34.3° (Epoch: 17 September)

Event Time Altitude Azimuth Distance (km) Brightness Sun altitude
Rises 18:54:08 0° 260° (W) 5,115 15.1 15.2°
Reaches altitude 10° 19:00:30 10° 233° (SW) 4,847 14.3 14.0°
Maximum altitude 19:05:13 12° 213° (SSW) 5,134 14.1 13.1°
Drops below altitude 10° 19:10:45 10° 194° (SSW) 5,828 14.1 12.1°
Sets 19:21:10 0° 171° (S) 7,552 14.3 10.1°
